Sidney, NE

3:59 PM MDT on October 15, 2019 (GMT -0600)
Sidney Municipal

Weather History for KSNY - September, 2019

Change the Weather History Date:

Tuesday, September 17, 2019

  Actual Average Record
Temperature  
Mean Temperature 70 °F -  
Max Temperature 88 °F 74 °F 99 °F (2000)
Min Temperature 53 °F 43 °F 28 °F (1965)
Cooling Degree Days 5    
Growing Degree Days 20 (Base 50)    
Moisture  
Dew Point 47 °F    
Average Humidity 49    
Maximum Humidity 86    
Minimum Humidity 20    
Precipitation  
Precipitation 0.00 in - - ()
Sea Level Pressure  
Sea Level Pressure 29.74 in    
Wind  
Wind Speed 7 mph ()    
Max Wind Speed 14 mph    
Max Gust Speed -    
Visibility 10.0 miles    
Events      
Averages and records for this station are not official NWS values.
T = Trace of Precipitation, MM = Missing Value Source: Averaged Metar Reports

Daily Weather History Graph

Daily Weather History Graph

Search for Another Location

Airport or City:

Astronomy

Sep. 17, 2019 Rise Set
Actual Time 6:34 AM MDT 6:57 PM MDT
Civil Twilight 6:06 AM MDT 7:25 PM MDT
Nautical Twilight 5:34 AM MDT 7:57 PM MDT
Astronomical Twilight 5:00 AM MDT 8:31 PM MDT
Moon 9:00 PM MDT (9/17) 9:42 AM MDT (9/17)
Length of Visible Light 13h 18m
Length of Day
12h 23m
Waning Gibbous, 89% of the Moon is Illuminated
Sep 17
Waning Gibbous
Sep 21
Last Quarter
Sep 28
New
Oct 5
First Quarter
Oct 13
Full

Hourly Weather History & Observations

Time (MDT) Temp. Dew Point Humidity Pressure Visibility Wind Dir Wind Speed Gust Speed Precip Events Conditions
12:53 AM 63.0 °F 52.0 °F 67% 29.73 in 10.0 mi SSW 11.5 mph - N/A   Clear
1:53 AM 59.0 °F 51.1 °F 75% 29.74 in 10.0 mi South 8.1 mph - N/A   Clear
2:53 AM 59.0 °F 51.1 °F 75% 29.73 in 10.0 mi SSW 8.1 mph - N/A   Clear
3:53 AM 55.9 °F 50.0 °F 80% 29.72 in 10.0 mi SW 4.6 mph - N/A   Clear
4:53 AM 55.0 °F 50.0 °F 83% 29.72 in 10.0 mi SSW 3.5 mph - N/A   Clear
5:53 AM 55.0 °F 50.0 °F 83% 29.73 in 10.0 mi WNW 8.1 mph - N/A   Clear
6:53 AM 53.1 °F 48.9 °F 86% 29.78 in 10.0 mi Calm Calm - N/A   Clear
7:53 AM 63.0 °F 53.1 °F 70% 29.77 in 10.0 mi West 3.5 mph - N/A   Clear
8:53 AM 72.0 °F 48.0 °F 43% 29.75 in 10.0 mi West 6.9 mph - N/A   Clear
9:53 AM 78.1 °F 46.9 °F 33% 29.73 in 10.0 mi NW 11.5 mph - N/A   Clear
10:53 AM 84.0 °F 44.1 °F 25% 29.73 in 10.0 mi NW 11.5 mph - N/A   Clear
11:53 AM 84.9 °F 44.1 °F 24% 29.72 in 10.0 mi NNW 10.4 mph - N/A   Clear
12:53 PM 84.9 °F 43.0 °F 23% 29.71 in 10.0 mi NNE 8.1 mph - N/A   Clear
1:53 PM 84.0 °F 44.1 °F 25% 29.72 in 10.0 mi North 5.8 mph - N/A   Clear
2:53 PM 87.1 °F 43.0 °F 21% 29.71 in 10.0 mi NNE 6.9 mph - N/A   Clear
3:53 PM 84.9 °F 42.1 °F 22% 29.71 in 10.0 mi SW 4.6 mph - N/A   Clear
4:53 PM 87.1 °F 41.0 °F 20% 29.70 in 10.0 mi Variable 4.6 mph - N/A   Clear
5:53 PM 80.1 °F 44.1 °F 28% 29.72 in 10.0 mi South 6.9 mph - N/A   Clear
6:53 PM 73.9 °F 50.0 °F 43% 29.75 in 10.0 mi Calm Calm - N/A   Clear
7:53 PM 69.1 °F 46.0 °F 44% 29.78 in 10.0 mi North 9.2 mph - N/A   Clear
8:53 PM 66.9 °F 46.9 °F 49% 29.78 in 10.0 mi NW 9.2 mph - N/A   Clear
9:53 PM 66.0 °F 46.9 °F 50% 29.80 in 10.0 mi NNW 13.8 mph - N/A   Clear
10:53 PM 63.0 °F 46.9 °F 56% 29.81 in 10.0 mi NW 13.8 mph - N/A   Clear
11:53 PM 61.0 °F 46.0 °F 58% 29.82 in 10.0 mi NNW 13.8 mph - N/A   Clear